QPF
0.00 0.00 0.00 0.00 0.00 0.00 0.01 0.04 0.07 0.10 0.11 0.12 0.09 0.10 0.08 0.08 0.07 0.08 0.08 0.11 0.13 0.16 0.17 0.15 0.20 0.20 0.19 0.19 0.21 0.27 0.32 0.30 0.32 0.28 0.21 0.12 0.05 0.03 0.02 0.01 0.00 0.00 0.00
0.00 0.00 0.00 0.00 0.00 0.01 0.03 0.07 0.11 0.15 0.16 0.17 0.16 0.15 0.16 0.11 0.11 0.12 0.12 0.11 0.13 0.16 0.18 0.20 0.19 0.21 0.22 0.23 0.26 0.32 0.34 0.32 0.40 0.40 0.37 0.27 0.14 0.06 0.03 0.04 0.04 0.01 0.00
0.00 0.00 0.01 0.01 0.01 0.02 0.03 0.06 0.11 0.14 0.17 0.20 0.20 0.16 0.17 0.11 0.13 0.17 0.16 0.15 0.15 0.16 0.17 0.17 0.18 0.20 0.22 0.23 0.25 0.31 0.34 0.34 0.40 0.43 0.41 0.34 0.25 0.16 0.09 0.06 0.03 0.02 0.02
0.00 0.01 0.01 0.02 0.01 0.01 0.01 0.03 0.07 0.11 0.13 0.17 0.19 0.16 0.16 0.13 0.16 0.23 0.22 0.18 0.15 0.17 0.17 0.18 0.19 0.19 0.19 0.21 0.24 0.30 0.35 0.34 0.31 0.36 0.37 0.33 0.28 0.22 0.13 0.08 0.06 0.03 0.03
0.01 0.01 0.01 0.01 0.01 0.00 0.01 0.02 0.04 0.06 0.08 0.10 0.12 0.12 0.11 0.12 0.14 0.19 0.18 0.15 0.14 0.13 0.11 0.13 0.15 0.16 0.17 0.19 0.23 0.27 0.31 0.33 0.33 0.34 0.35 0.32 0.29 0.25 0.16 0.10 0.09 0.06 0.04
0.00 0.00 0.00 0.00 0.00 0.00 0.00 0.01 0.02 0.03 0.05 0.07 0.08 0.08 0.08 0.11 0.13 0.15 0.16 0.17 0.16 0.13 0.11 0.12 0.13 0.13 0.17 0.20 0.23 0.25 0.27 0.29 0.30 0.29 0.30 0.27 0.24 0.23 0.19 0.11 0.10 0.09 0.05
0.00 0.00 0.00 0.00 0.00 0.00 0.00 0.00 0.01 0.02 0.03 0.04 0.06 0.06 0.07 0.09 0.10 0.13 0.15 0.18 0.17 0.15 0.14 0.15 0.16 0.17 0.19 0.22 0.24 0.26 0.28 0.30 0.29 0.28 0.27 0.24 0.20 0.17 0.14 0.10 0.07 0.07 0.05
0.00 0.00 0.00 0.00 0.00 0.00 0.00 0.00 0.00 0.01 0.01 0.03 0.04 0.05 0.07 0.08 0.09 0.12 0.14 0.18 0.19 0.18 0.19 0.18 0.19 0.19 0.21 0.23 0.26 0.27 0.26 0.27 0.26 0.24 0.23 0.21 0.17 0.13 0.10 0.07 0.06 0.05 0.05
0.00 0.00 0.00 0.00 0.00 0.00 0.00 0.00 0.00 0.01 0.01 0.02 0.03 0.04 0.06 0.08 0.10 0.12 0.14 0.18 0.20 0.20 0.21 0.20 0.20 0.22 0.25 0.27 0.29 0.29 0.26 0.25 0.24 0.23 0.21 0.20 0.16 0.11 0.08 0.06 0.05 0.04 0.03
0.00 0.00 0.00 0.00 0.00 0.00 0.00 0.00 0.00 0.01 0.02 0.02 0.03 0.03 0.06 0.08 0.12 0.14 0.16 0.18 0.21 0.22 0.22 0.25 0.28 0.30 0.29 0.28 0.29 0.32 0.29 0.26 0.24 0.21 0.21 0.16 0.11 0.08 0.05 0.04 0.04 0.04 0.03
0.00 0.00 0.00 0.00 0.00 0.00 0.00 0.00 0.01 0.01 0.02 0.02 0.03 0.05 0.08 0.12 0.14 0.17 0.20 0.23 0.26 0.28 0.28 0.27 0.28 0.29 0.28 0.27 0.28 0.30 0.29 0.25 0.23 0.18 0.15 0.10 0.07 0.05 0.04 0.03 0.02 0.03 0.03
0.00 0.00 0.00 0.00 0.00 0.00 0.00 0.00 0.01 0.01 0.02 0.02 0.03 0.05 0.08 0.13 0.18 0.21 0.24 0.27 0.30 0.30 0.27 0.25 0.23 0.24 0.25 0.24 0.25 0.26 0.24 0.21 0.18 0.14 0.10 0.07 0.04 0.03 0.02 0.02 0.02 0.01 0.02
0.00 0.00 0.00 0.00 0.00 0.00 0.00 0.00 0.00 0.01 0.01 0.02 0.04 0.05 0.07 0.13 0.17 0.18 0.19 0.20 0.22 0.23 0.20 0.17 0.17 0.17 0.19 0.22 0.24 0.21 0.17 0.15 0.12 0.09 0.06 0.04 0.02 0.01 0.01 0.00 0.00 0.00 0.00
0.00 0.00 0.00 0.00 0.00 0.00 0.00 0.00 0.00 0.01 0.02 0.03 0.04 0.06 0.08 0.12 0.16 0.17 0.15 0.15 0.17 0.20 0.21 0.19 0.18 0.17 0.17 0.17 0.17 0.15 0.12 0.09 0.05 0.03 0.02 0.01 0.00 0.00 0.00 0.00 0.00 0.00 0.00
0.00 0.00 0.00 0.00 0.00 0.00 0.01 0.01 0.01 0.01 0.03 0.04 0.04 0.08 0.11 0.12 0.13 0.15 0.14 0.14 0.13 0.12 0.13 0.15 0.16 0.14 0.14 0.13 0.10 0.08 0.06 0.03 0.02 0.01 0.00 0.00 0.00 0.00 0.00 0.00 0.00 0.00 0.00
0.00 0.00 0.00 0.00 0.00 0.01 0.01 0.01 0.01 0.02 0.03 0.04 0.05 0.07 0.10 0.12 0.12 0.11 0.11 0.10 0.09 0.08 0.08 0.09 0.09 0.08 0.08 0.08 0.06 0.05 0.03 0.01 0.00 0.00 0.00 0.00 0.00 0.00 0.00 0.00 0.00 0.00 0.00
0.00 0.00 0.00 0.00 0.00 0.00 0.01 0.02 0.02 0.03 0.04 0.05 0.06 0.08 0.09 0.11 0.12 0.09 0.07 0.06 0.05 0.05 0.05 0.05 0.05 0.04 0.03 0.04 0.04 0.02 0.01 0.00 0.00 0.00 0.00 0.00 0.00 0.00 0.00 0.00 0.00 0.00 0.00
0.00 0.00 0.00 0.00 0.00 0.00 0.01 0.02 0.04 0.05 0.05 0.07 0.09 0.11 0.10 0.10 0.10 0.07 0.06 0.06 0.06 0.05 0.05 0.05 0.03 0.02 0.01 0.01 0.01 0.00 0.00 0.00 0.00 0.00 0.00 0.00 0.00 0.00 0.00 0.00 0.01 0.00 0.00
0.00 0.00 0.00 0.00 0.00 0.00 0.00 0.01 0.03 0.04 0.05 0.08 0.10 0.11 0.11 0.10 0.09 0.08 0.08 0.08 0.07 0.06 0.05 0.06 0.04 0.01 0.00 0.00 0.00 0.00 0.01 0.01 0.00 0.00 0.00 0.00 0.00 0.00 0.00 0.00 0.00 0.00 0.00
0.00 0.00 0.00 0.00 0.00 0.00 0.00 0.00 0.01 0.04 0.06 0.07 0.08 0.08 0.10 0.11 0.11 0.11 0.10 0.09 0.07 0.06 0.05 0.06 0.04 0.02 0.00 0.00 0.00 0.00 0.01 0.02 0.00 0.00 0.00 0.00 0.00 0.00 0.00 0.00 0.00 0.00 0.00
0.00 0.00 0.00 0.00 0.00 0.00 0.00 0.01 0.01 0.03 0.04 0.05 0.06 0.08 0.09 0.11 0.12 0.13 0.12 0.09 0.06 0.06 0.06 0.05 0.05 0.03 0.01 0.00 0.00 0.00 0.01 0.01 0.00 0.00 0.00 0.00 0.00 0.00 0.00 0.00 0.00 0.00 0.00
0.00 0.00 0.01 0.00 0.01 0.01 0.01 0.01 0.01 0.02 0.02 0.04 0.06 0.07 0.09 0.07 0.07 0.09 0.10 0.10 0.09 0.07 0.06 0.05 0.04 0.02 0.00 0.00 0.00 0.00 0.00 0.00 0.00 0.00 0.00 0.00 0.00 0.00 0.00 0.00 0.00 0.00 0.00
0.01 0.02 0.02 0.02 0.02 0.02 0.01 0.01 0.01 0.01 0.02 0.05 0.08 0.09 0.09 0.10 0.11 0.10 0.08 0.08 0.07 0.07 0.06 0.04 0.03 0.02 0.00 0.00 0.00 0.00 0.00 0.00 0.00 0.00 0.00 0.00 0.00 0.00 0.00 0.00 0.00 0.00 0.00
0.02 0.02 0.02 0.03 0.04 0.04 0.03 0.02 0.01 0.01 0.03 0.05 0.08 0.10 0.11 0.11 0.12 0.12 0.10 0.08 0.08 0.07 0.07 0.06 0.04 0.03 0.01 0.00 0.00 0.00 0.00 0.00 0.00 0.00 0.00 0.00 0.00 0.00 0.00 0.00 0.00 0.00 0.00
0.03 0.03 0.05 0.06 0.07 0.09 0.08 0.04 0.02 0.02 0.03 0.05 0.07 0.08 0.09 0.11 0.12 0.12 0.11 0.10 0.11 0.08 0.08 0.07 0.05 0.03 0.01 0.00 0.00 0.00 0.00 0.00 0.00 0.00 0.00 0.00 0.00 0.00 0.00 0.00 0.00 0.00 0.00
0.06 0.08 0.09 0.11 0.11 0.10 0.10 0.07 0.03 0.02 0.03 0.04 0.06 0.07 0.08 0.09 0.09 0.10 0.06 0.04 0.05 0.02 0.01 0.02 0.02 0.01 0.00 0.00 0.00 0.00 0.00 0.00 0.00 0.00 0.00 0.00 0.00 0.00 0.00 0.00 0.00 0.00 0.00
MSLP
1006.85 1006.89 1006.88 1006.84 1006.80 1006.81 1006.91 1007.11 1007.41 1007.79 1008.19 1008.56 1008.86 1009.07 1009.18 1009.21 1009.20 1009.18 1009.21 1009.30 1009.46 1009.67 1009.92 1010.18 1010.43 1010.67 1010.90 1011.15 1011.42 1011.74 1012.09 1012.44 1012.74 1012.95 1012.99 1012.84 1012.50 1011.97 1011.31 1010.60 1009.94 1009.39 1009.03
1007.75 1007.83 1007.82 1007.73 1007.60 1007.49 1007.44 1007.50 1007.68 1007.96 1008.29 1008.62 1008.89 1009.08 1009.16 1009.15 1009.08 1009.00 1008.95 1008.97 1009.07 1009.24 1009.46 1009.71 1009.96 1010.21 1010.45 1010.70 1010.97 1011.28 1011.63 1012.00 1012.33 1012.57 1012.68 1012.61 1012.33 1011.86 1011.24 1010.55 1009.87 1009.29 1008.86
1008.55 1008.69 1008.70 1008.58 1008.39 1008.17 1008.00 1007.93 1007.98 1008.15 1008.39 1008.65 1008.87 1009.01 1009.05 1008.98 1008.84 1008.69 1008.56 1008.50 1008.54 1008.66 1008.85 1009.08 1009.33 1009.58 1009.83 1010.08 1010.35 1010.66 1011.00 1011.37 1011.72 1012.01 1012.18 1012.19 1012.02 1011.65 1011.12 1010.51 1009.87 1009.30 1008.86
1009.08 1009.29 1009.34 1009.23 1009.01 1008.72 1008.46 1008.29 1008.23 1008.30 1008.45 1008.63 1008.79 1008.87 1008.85 1008.72 1008.51 1008.28 1008.07 1007.94 1007.90 1007.96 1008.12 1008.34 1008.58 1008.83 1009.08 1009.33 1009.60 1009.90 1010.23 1010.60 1010.97 1011.30 1011.54 1011.65 1011.59 1011.35 1010.96 1010.46 1009.92 1009.41 1009.00
1009.28 1009.55 1009.66 1009.58 1009.36 1009.06 1008.76 1008.53 1008.40 1008.39 1008.47 1008.59 1008.69 1008.71 1008.63 1008.44 1008.17 1007.86 1007.57 1007.36 1007.25 1007.25 1007.36 1007.55 1007.79 1008.03 1008.28 1008.54 1008.80 1009.09 1009.41 1009.78 1010.16 1010.52 1010.83 1011.03 1011.09 1010.99 1010.75 1010.39 1009.97 1009.56 1009.21
1009.16 1009.47 1009.63 1009.61 1009.43 1009.16 1008.87 1008.63 1008.48 1008.43 1008.47 1008.55 1008.61 1008.59 1008.46 1008.22 1007.89 1007.52 1007.16 1006.87 1006.69 1006.63 1006.69 1006.84 1007.05 1007.29 1007.54 1007.79 1008.05 1008.33 1008.65 1009.01 1009.39 1009.78 1010.14 1010.41 1010.58 1010.61 1010.51 1010.29 1010.01 1009.71 1009.44
1008.78 1009.11 1009.32 1009.36 1009.26 1009.06 1008.83 1008.63 1008.50 1008.47 1008.50 1008.56 1008.60 1008.56 1008.40 1008.13 1007.76 1007.34 1006.92 1006.57 1006.32 1006.20 1006.20 1006.31 1006.49 1006.71 1006.95 1007.19 1007.45 1007.72 1008.03 1008.38 1008.77 1009.16 1009.54 1009.87 1010.11 1010.24 1010.26 1010.18 1010.02 1009.82 1009.63
1008.26 1008.59 1008.84 1008.95 1008.94 1008.84 1008.70 1008.58 1008.52 1008.52 1008.58 1008.65 1008.69 1008.65 1008.49 1008.20 1007.81 1007.36 1006.91 1006.50 1006.20 1006.02 1005.96 1006.02 1006.16 1006.36 1006.58 1006.82 1007.07 1007.34 1007.64 1007.98 1008.34 1008.73 1009.11 1009.45 1009.74 1009.94 1010.04 1010.05 1009.99 1009.88 1009.76
1007.71 1008.03 1008.31 1008.49 1008.58 1008.59 1008.56 1008.54 1008.56 1008.62 1008.73 1008.83 1008.88 1008.85 1008.69 1008.41 1008.02 1007.57 1007.09 1006.66 1006.32 1006.09 1005.99 1006.00 1006.11 1006.28 1006.49 1006.72 1006.96 1007.22 1007.51 1007.82 1008.16 1008.52 1008.87 1009.21 1009.50 1009.72 1009.87 1009.94 1009.95 1009.91 1009.84
1007.23 1007.53 1007.83 1008.07 1008.25 1008.37 1008.46 1008.54 1008.64 1008.77 1008.92 1009.05 1009.13 1009.11 1008.97 1008.71 1008.34 1007.90 1007.43 1007.00 1006.64 1006.39 1006.25 1006.23 1006.31 1006.45 1006.65 1006.87 1007.11 1007.36 1007.63 1007.92 1008.22 1008.54 1008.86 1009.15 1009.42 1009.63 1009.79 1009.89 1009.94 1009.94 1009.92
1006.87 1007.14 1007.45 1007.74 1008.00 1008.21 1008.39 1008.57 1008.75 1008.93 1009.12 1009.27 1009.36 1009.36 1009.24 1009.01 1008.67 1008.27 1007.84 1007.43 1007.08 1006.83 1006.68 1006.65 1006.71 1006.84 1007.03 1007.24 1007.47 1007.72 1007.97 1008.24 1008.50 1008.77 1009.04 1009.29 1009.51 1009.69 1009.83 1009.94 1010.00 1010.03 1010.04
1006.60 1006.85 1007.16 1007.49 1007.80 1008.08 1008.34 1008.59 1008.83 1009.05 1009.26 1009.42 1009.52 1009.53 1009.43 1009.23 1008.94 1008.59 1008.21 1007.86 1007.55 1007.33 1007.20 1007.17 1007.23 1007.36 1007.54 1007.75 1007.98 1008.22 1008.46 1008.70 1008.94 1009.17 1009.38 1009.57 1009.74 1009.89 1010.01 1010.10 1010.17 1010.22 1010.25
1006.40 1006.62 1006.93 1007.26 1007.61 1007.94 1008.26 1008.55 1008.82 1009.07 1009.28 1009.45 1009.54 1009.56 1009.48 1009.32 1009.09 1008.80 1008.50 1008.22 1007.98 1007.81 1007.73 1007.72 1007.80 1007.94 1008.12 1008.33 1008.56 1008.80 1009.03 1009.25 1009.46 1009.65 1009.82 1009.97 1010.10 1010.21 1010.30 1010.38 1010.45 1010.51 1010.56
1006.21 1006.40 1006.68 1007.01 1007.36 1007.72 1008.07 1008.39 1008.68 1008.94 1009.16 1009.32 1009.41 1009.43 1009.38 1009.27 1009.10 1008.89 1008.68 1008.49 1008.33 1008.24 1008.20 1008.24 1008.34 1008.50 1008.69 1008.91 1009.14 1009.37 1009.60 1009.81 1010.01 1010.18 1010.32 1010.44 1010.53 1010.61 1010.68 1010.75 1010.82 1010.89 1010.95
1006.02 1006.15 1006.38 1006.68 1007.02 1007.38 1007.73 1008.07 1008.38 1008.65 1008.86 1009.03 1009.13 1009.17 1009.15 1009.08 1008.98 1008.87 1008.75 1008.65 1008.59 1008.57 1008.61 1008.69 1008.83 1009.00 1009.20 1009.43 1009.67 1009.90 1010.13 1010.34 1010.53 1010.68 1010.81 1010.91 1010.99 1011.05 1011.10 1011.15 1011.22 1011.29 1011.36
1005.83 1005.87 1006.02 1006.25 1006.55 1006.89 1007.24 1007.59 1007.91 1008.19 1008.42 1008.59 1008.72 1008.78 1008.81 1008.81 1008.79 1008.76 1008.73 1008.73 1008.76 1008.82 1008.92 1009.05 1009.22 1009.42 1009.63 1009.87 1010.11 1010.35 1010.58 1010.79 1010.98 1011.14 1011.27 1011.36 1011.42 1011.47 1011.51 1011.55 1011.60 1011.65 1011.72
1005.65 1005.57 1005.61 1005.76 1005.99 1006.29 1006.62 1006.97 1007.30 1007.59 1007.85 1008.05 1008.21 1008.33 1008.41 1008.48 1008.53 1008.59 1008.66 1008.75 1008.86 1008.99 1009.15 1009.32 1009.52 1009.74 1009.96 1010.21 1010.45 1010.70 1010.94 1011.17 1011.37 1011.53 1011.66 1011.76 1011.82 1011.85 1011.87 1011.89 1011.91 1011.95 1011.99
1005.53 1005.31 1005.21 1005.24 1005.39 1005.62 1005.92 1006.25 1006.59 1006.90 1007.19 1007.44 1007.65 1007.82 1007.98 1008.12 1008.25 1008.39 1008.55 1008.71 1008.89 1009.09 1009.29 1009.50 1009.72 1009.96 1010.20 1010.45 1010.71 1010.97 1011.22 1011.46 1011.67 1011.85 1011.99 1012.09 1012.15 1012.17 1012.17 1012.16 1012.15 1012.14 1012.14
1005.52 1005.12 1004.87 1004.77 1004.81 1004.96 1005.21 1005.51 1005.84 1006.18 1006.49 1006.79 1007.05 1007.29 1007.52 1007.73 1007.95 1008.17 1008.39 1008.62 1008.86 1009.11 1009.35 1009.59 1009.84 1010.09 1010.34 1010.61 1010.88 1011.16 1011.43 1011.68 1011.92 1012.11 1012.26 1012.36 1012.41 1012.43 1012.40 1012.36 1012.31 1012.25 1012.21
1005.60 1005.05 1004.65 1004.41 1004.33 1004.38 1004.56 1004.81 1005.12 1005.46 1005.80 1006.13 1006.44 1006.75 1007.04 1007.32 1007.61 1007.90 1008.19 1008.48 1008.77 1009.05 1009.33 1009.61 1009.87 1010.14 1010.42 1010.70 1010.99 1011.29 1011.58 1011.86 1012.11 1012.32 1012.48 1012.58 1012.63 1012.63 1012.59 1012.52 1012.43 1012.33 1012.24
1005.77 1005.08 1004.55 1004.18 1003.98 1003.94 1004.02 1004.21 1004.48 1004.80 1005.14 1005.49 1005.84 1006.19 1006.54 1006.89 1007.24 1007.58 1007.93 1008.27 1008.61 1008.93 1009.25 1009.55 1009.85 1010.14 1010.44 1010.75 1011.06 1011.37 1011.68 1011.98 1012.24 1012.47 1012.64 1012.76 1012.81 1012.80 1012.75 1012.66 1012.54 1012.42 1012.29
1005.98 1005.20 1004.57 1004.10 1003.80 1003.65 1003.64 1003.75 1003.95 1004.23 1004.54 1004.89 1005.26 1005.64 1006.03 1006.42 1006.82 1007.22 1007.62 1008.01 1008.39 1008.76 1009.11 1009.45 1009.78 1010.10 1010.43 1010.76 1011.09 1011.42 1011.74 1012.05 1012.33 1012.57 1012.75 1012.87 1012.93 1012.93 1012.88 1012.79 1012.68 1012.55 1012.41
1006.17 1005.36 1004.68 1004.15 1003.76 1003.52 1003.41 1003.43 1003.56 1003.77 1004.04 1004.36 1004.72 1005.10 1005.51 1005.94 1006.38 1006.83 1007.27 1007.71 1008.14 1008.55 1008.95 1009.33 1009.69 1010.04 1010.39 1010.74 1011.09 1011.43 1011.76 1012.07 1012.35 1012.59 1012.78 1012.91 1012.98 1013.01 1012.98 1012.91 1012.82 1012.71 1012.60
1006.29 1005.51 1004.83 1004.26 1003.82 1003.51 1003.32 1003.25 1003.28 1003.41 1003.61 1003.89 1004.21 1004.59 1005.00 1005.45 1005.92 1006.40 1006.89 1007.38 1007.86 1008.32 1008.77 1009.19 1009.59 1009.97 1010.35 1010.71 1011.06 1011.40 1011.72 1012.02 1012.29 1012.52 1012.71 1012.85 1012.95 1013.00 1013.01 1012.99 1012.95 1012.89 1012.82
1006.29 1005.58 1004.94 1004.38 1003.92 1003.56 1003.30 1003.14 1003.09 1003.13 1003.26 1003.46 1003.75 1004.09 1004.50 1004.95 1005.44 1005.96 1006.49 1007.02 1007.56 1008.07 1008.57 1009.04 1009.48 1009.89 1010.29 1010.65 1011.00 1011.32 1011.62 1011.90 1012.14 1012.35 1012.53 1012.68 1012.79 1012.88 1012.94 1012.98 1013.00 1013.01 1013.01
1006.15 1005.55 1004.98 1004.45 1003.98 1003.59 1003.27 1003.04 1002.91 1002.87 1002.91 1003.06 1003.28 1003.59 1003.97 1004.42 1004.93 1005.47 1006.04 1006.62 1007.21 1007.78 1008.33 1008.85 1009.34 1009.78 1010.19 1010.56 1010.89 1011.19 1011.45 1011.69 1011.90 1012.08 1012.24 1012.39 1012.52 1012.63 1012.74 1012.85 1012.95 1013.03 1013.11
Thickness
5815 5818 5818 5818 5816 5813 5811 5808 5804 5800 5796 5791 5788 5785 5783 5785 5785 5785 5785 5784 5781 5778 5774 5771 5768 5764 5760 5757 5753 5749 5744 5742 5740 5734 5732 5737 5743 5748 5754 5759 5762 5764 5766
5797 5798 5799 5799 5798 5796 5796 5795 5791 5788 5786 5783 5781 5780 5778 5778 5779 5779 5778 5777 5774 5771 5768 5764 5761 5758 5754 5750 5747 5743 5737 5735 5733 5727 5721 5720 5727 5738 5750 5754 5756 5758 5760
5782 5783 5782 5782 5783 5782 5781 5782 5779 5778 5776 5774 5773 5771 5770 5769 5769 5769 5768 5769 5768 5765 5762 5760 5757 5753 5750 5746 5742 5739 5733 5729 5729 5726 5718 5711 5712 5721 5734 5742 5748 5752 5753
5774 5771 5771 5769 5769 5770 5772 5771 5769 5767 5766 5765 5762 5759 5756 5755 5759 5760 5761 5761 5760 5758 5756 5754 5751 5748 5745 5742 5740 5737 5732 5728 5723 5722 5720 5717 5715 5708 5714 5728 5737 5742 5743
5767 5764 5762 5760 5761 5761 5761 5761 5759 5756 5756 5754 5752 5750 5749 5749 5751 5752 5752 5751 5751 5751 5749 5747 5745 5742 5740 5738 5736 5733 5729 5725 5721 5718 5715 5712 5711 5709 5705 5709 5718 5727 5733
5763 5760 5758 5756 5754 5754 5753 5751 5748 5746 5746 5744 5743 5741 5739 5739 5738 5739 5739 5740 5741 5742 5742 5741 5738 5736 5734 5733 5731 5728 5725 5721 5719 5716 5712 5709 5706 5706 5704 5704 5708 5713 5721
5758 5754 5751 5749 5746 5745 5744 5743 5740 5737 5737 5735 5734 5732 5731 5730 5728 5728 5728 5728 5729 5730 5732 5731 5729 5727 5728 5727 5724 5721 5718 5716 5714 5712 5709 5707 5706 5706 5704 5702 5703 5706 5712
5754 5750 5748 5745 5742 5740 5737 5735 5732 5729 5728 5726 5724 5723 5722 5720 5720 5719 5718 5718 5718 5719 5720 5719 5719 5719 5719 5718 5716 5714 5713 5711 5709 5708 5705 5702 5702 5702 5701 5699 5697 5696 5700
5749 5746 5744 5741 5737 5734 5731 5728 5724 5721 5719 5717 5715 5714 5712 5709 5708 5707 5707 5706 5706 5706 5707 5706 5707 5707 5707 5707 5707 5706 5705 5704 5702 5700 5698 5696 5696 5696 5696 5696 5694 5690 5686
5746 5742 5738 5735 5731 5728 5724 5721 5717 5713 5711 5708 5705 5704 5701 5698 5696 5694 5692 5692 5691 5691 5691 5691 5692 5692 5693 5695 5696 5696 5696 5694 5692 5691 5690 5688 5687 5688 5689 5689 5689 5688 5683
5741 5736 5732 5728 5724 5720 5716 5712 5708 5705 5701 5698 5695 5691 5689 5686 5683 5680 5678 5676 5675 5674 5674 5674 5676 5676 5678 5681 5683 5684 5684 5683 5681 5681 5680 5678 5678 5678 5679 5680 5681 5680 5678
5737 5733 5727 5721 5715 5710 5706 5703 5699 5695 5691 5688 5684 5681 5677 5674 5670 5667 5664 5662 5659 5658 5658 5659 5660 5662 5665 5668 5671 5672 5673 5672 5670 5670 5669 5668 5669 5668 5668 5670 5671 5671 5671
5731 5726 5720 5713 5707 5702 5698 5694 5691 5686 5683 5679 5675 5671 5667 5662 5658 5655 5651 5649 5648 5646 5644 5646 5648 5649 5652 5655 5658 5659 5660 5661 5660 5659 5657 5657 5657 5656 5658 5660 5660 5661 5663
5725 5719 5713 5707 5702 5696 5691 5687 5683 5679 5675 5670 5666 5662 5657 5653 5649 5645 5642 5639 5637 5636 5634 5634 5636 5637 5640 5643 5645 5647 5647 5648 5647 5647 5646 5646 5645 5645 5648 5650 5649 5650 5650
5719 5713 5707 5702 5696 5691 5686 5681 5676 5672 5668 5663 5659 5655 5651 5646 5642 5637 5634 5631 5629 5628 5626 5625 5626 5628 5630 5632 5633 5635 5636 5636 5636 5636 5636 5636 5636 5636 5638 5639 5637 5638 5638
5712 5709 5704 5697 5691 5686 5681 5676 5671 5666 5662 5657 5653 5650 5645 5641 5635 5631 5627 5624 5623 5621 5620 5618 5618 5619 5619 5620 5623 5626 5626 5627 5627 5627 5627 5627 5628 5629 5629 5629 5628 5628 5627
5706 5702 5698 5692 5687 5682 5677 5671 5666 5662 5657 5653 5650 5646 5642 5637 5631 5627 5623 5620 5618 5616 5614 5613 5612 5611 5610 5613 5614 5615 5618 5618 5619 5620 5620 5622 5621 5620 5621 5622 5622 5621 5620
5699 5696 5693 5688 5684 5679 5674 5668 5663 5658 5653 5649 5646 5643 5639 5634 5629 5624 5620 5617 5615 5613 5611 5609 5607 5606 5605 5606 5607 5608 5611 5612 5612 5612 5612 5611 5610 5611 5612 5614 5615 5615 5614
5690 5690 5689 5685 5680 5674 5669 5663 5658 5654 5650 5646 5643 5641 5637 5633 5627 5622 5618 5615 5612 5610 5608 5606 5604 5602 5600 5600 5601 5601 5604 5604 5605 5605 5603 5605 5603 5602 5604 5607 5607 5606 5605
5684 5684 5684 5680 5675 5670 5665 5657 5652 5649 5646 5645 5643 5640 5636 5631 5626 5621 5617 5614 5610 5608 5605 5603 5601 5599 5597 5595 5595 5595 5598 5599 5599 5598 5596 5595 5595 5595 5596 5598 5597 5595 5594
5675 5677 5676 5672 5669 5666 5659 5652 5648 5645 5645 5644 5641 5638 5634 5629 5625 5620 5616 5612 5609 5606 5603 5601 5599 5597 5594 5591 5591 5592 5595 5596 5598 5597 5593 5590 5590 5590 5590 5590 5590 5587 5586
5661 5664 5662 5663 5664 5661 5654 5648 5644 5643 5642 5641 5638 5634 5631 5628 5625 5618 5614 5611 5607 5603 5600 5597 5595 5593 5591 5590 5588 5589 5590 5591 5594 5594 5590 5586 5585 5585 5585 5585 5584 5584 5583
5640 5644 5648 5651 5654 5654 5650 5645 5643 5640 5637 5635 5633 5631 5628 5625 5623 5617 5612 5608 5605 5602 5599 5596 5594 5592 5590 5587 5586 5586 5587 5588 5589 5587 5585 5583 5581 5581 5580 5580 5580 5578 5578
5621 5625 5630 5635 5639 5642 5644 5642 5640 5637 5632 5630 5628 5626 5624 5622 5619 5615 5612 5608 5605 5602 5599 5597 5595 5593 5590 5587 5585 5585 5584 5583 5583 5583 5581 5579 5578 5577 5576 5577 5577 5576 5573
5604 5607 5611 5616 5623 5629 5634 5637 5637 5633 5628 5625 5624 5623 5621 5619 5616 5613 5610 5608 5607 5606 5602 5599 5598 5595 5591 5589 5587 5586 5585 5584 5583 5580 5579 5577 5577 5576 5576 5577 5576 5574 5569
5589 5592 5596 5600 5607 5615 5621 5629 5631 5629 5625 5621 5620 5619 5618 5617 5614 5610 5605 5600 5602 5600 5600 5600 5599 5597 5592 5585 5583 5581 5580 5579 5578 5577 5577 5578 5579 5578 5577 5575 5572 5568 5563